SUNDSVALL-HARNOSAND FLY current weather conditions

sailwx.info

Wind from 330 at 7 knots

Air temperature -1.0° C
Visibility: greater than 5.4 NM
Dewpoint -5.0° C
Present weather: Light snow.

Last reported at 2016-Feb-11 21:20 UTC.
Time now 2016-Feb-11 23:26 UTC

Location: N 62°32' E 017°27'.
View on Google Maps.

See reports from other nearby stations

  
Tides and Currents Weather Stations Pressure Air Temp Water Temp Dewpoint Dewpoint Depression Visibility Wind Speed Wind Dir Waves Ship Positions
date/time (UTC)wind fromknots sea level pressurealtimeterstation pressurevisibilityair tempwater tempwave heightnotes
2016-Feb-11 22:20 330 9 5.4-1.0 Light snow.
2016-Feb-11 21:50 320 8 5.4-1.0 Light snow.
2016-Feb-11 21:20 330 7 5.4-1.0 Light snow.
2016-Feb-11 20:50 330 8 -1.0
2016-Feb-11 20:20 330 10 -1.0
2016-Feb-11 19:50 330 11 -1.0
2016-Feb-11 19:20 330 12 -0.0
2016-Feb-11 18:50 330 11 -0.0
2016-Feb-11 18:20 320 12 -0.0
2016-Feb-11 17:50 320 13 -0.0
2016-Feb-11 17:20 320 11 -0.0
2016-Feb-11 16:50 310 11 -0.0
2016-Feb-11 16:20 320 10 -0.0
2016-Feb-11 15:50 320 10 -0.0
2016-Feb-11 15:20 320 12 -0.0
2016-Feb-11 14:50 320 11 -0.0
2016-Feb-11 14:20 320 13 5.4-0.0
2016-Feb-11 13:50 320 11 5.4-0.0
2016-Feb-11 13:20 320 12 -0.0
2016-Feb-11 12:50 320 14 5.4-0.0
2016-Feb-11 12:20 320 16 5.4-0.0 Light snow.
2016-Feb-11 11:50 320 14 5.4-0.0 Light snow.
2016-Feb-11 11:20 320 14 5.4-0.0 Light snow.
2016-Feb-11 10:50 320 14 5.4-0.0
2016-Feb-11 10:20 320 13 5.4-0.0
2016-Feb-11 09:50 320 15 5.4-0.0
2016-Feb-11 09:20 320 11 5.4-0.0 Light snow.
2016-Feb-11 08:50 310 12 5.4 1.0
2016-Feb-11 08:20 320 8 5.4 1.0
2016-Feb-11 07:50 320 10 5.4-0.0
2016-Feb-11 07:20 310 9 5.4-0.0
2016-Feb-11 06:50 320 9 5.4-0.0
2016-Feb-11 06:20 300 9 5.4-0.0
2016-Feb-11 05:50 310 7 5.4 1.0
2016-Feb-11 05:20 320 9 5.4 1.0
2016-Feb-11 04:50 310 7 5.4 1.0
2016-Feb-11 04:20 320 5 5.4 1.0
2016-Feb-11 03:50 300 5 5.4-0.0
2016-Feb-11 03:20 280 3 5.4-0.0
2016-Feb-11 02:50 260 2 5.4-0.0
2016-Feb-11 02:20 290 2 5.4-0.0
2016-Feb-11 01:50 5.4-0.0
2016-Feb-11 01:20 300 2 5.4-0.0
2016-Feb-11 00:50 310 4 5.4 1.0 Snow grains.
2016-Feb-11 00:20 290 3 5.4 1.0 Light rain.
2016-Feb-10 23:50 300 3 5.4 1.0 Light rain.
2016-Feb-10 23:20 320 5 5.4 1.0 Light rain.
2016-Feb-10 22:50 310 4 5.4 1.0 Light rain.
2016-Feb-10 22:20 310 7 5.4 1.0 Light rain.
2016-Feb-10 21:50 330 8 5.4 1.0 Light rain.
2016-Feb-10 21:20 320 8 5.4 1.0 Light rain.
2016-Feb-10 20:50 330 9 5.4 1.0 Light rain.
2016-Feb-10 20:20 320 9 5.4 1.0 Light rain snow.
2016-Feb-10 19:50 320 10 5.4 1.0 Light rain.
2016-Feb-10 19:20 310 6 5.4 1.0 Light rain.
2016-Feb-10 18:50 320 7 5.4 1.0 Light snow.
2016-Feb-10 18:20 320 6 5.4 1.0 Light rain.
2016-Feb-10 17:50 320 6 5.4-0.0 Light snow.
2016-Feb-10 17:20 310 6 2.1-0.0 Light snow.
2016-Feb-10 16:50 310 6 2.2-0.0 Snow.
2016-Feb-10 16:20 320 5 1.8 1.0 Light snow.
2016-Feb-10 15:50 290 5 4.3 1.0 Light rain snow.
2016-Feb-10 15:20 4.3 1.0 Rain snow.
2016-Feb-10 14:50 040 2 4.9 1.0 Light rain.
2016-Feb-10 14:20 360 2 3.8 2.0
2016-Feb-10 13:50 3.2 1.0
2016-Feb-10 13:20 3.2 1.0
2016-Feb-10 12:50 340 2 3.2 1.0 Patches of fog.
2016-Feb-10 12:20 0.5 1.0 Fog.
2016-Feb-10 11:50 310 3 0.1 1.0 Fog.
2016-Feb-10 11:20 310 3 0.2-0.0 Fog.
2016-Feb-10 10:50 330 3 0.9-0.0
2016-Feb-10 10:20 310 2 0.2 1.0 Fog.
2016-Feb-10 09:50 300 2 0.5-0.0 Patches of fog.
2016-Feb-10 09:20 320 2 0.6-0.0
2016-Feb-10 08:50 0.3-0.0 Freezing fog.
2016-Feb-10 08:20 130 3 0.1-1.0 Freezing fog.
2016-Feb-10 07:50 0.1-1.0 Freezing fog.
2016-Feb-10 07:20 350 3 0.6-0.0
2016-Feb-10 06:50 0.5-0.0
2016-Feb-10 06:20 0.4-0.0 Freezing fog.
2016-Feb-10 05:50 0.2-0.0 Freezing fog.
2016-Feb-10 05:20 1.0-0.0 Patches of fog.
2016-Feb-10 04:50 2.2-0.0 Patches of fog.
2016-Feb-10 04:20 0.2-0.0 Fog.
2016-Feb-10 03:50 310 2 0.2-0.0 Fog.
2016-Feb-10 03:20 0.5-0.0
2016-Feb-10 02:50 120 2 0.4-0.0
2016-Feb-10 02:20 0.3-0.0 Fog.
2016-Feb-10 01:50 0.3-0.0 Fog.
2016-Feb-10 01:20 0.3-0.0 Fog.
2016-Feb-10 00:50 140 2 0.1-0.0 Fog.
2016-Feb-10 00:20 0.1-0.0 Fog.
2016-Feb-09 23:50 0.1-0.0 Fog.
2016-Feb-09 23:20 120 1 0.1-0.0 Fog.